Time,TemperatureF,DewpointF,PressureIn,WindDirection,WindDirectionDegrees,WindSpeedMPH,WindSpeedGustMPH,Humidity,HourlyPrecipIn,Conditions,Clouds,dailyrainin,SoftwareType,DateUTC
2013-06-17 00:00:00,65.1,64.2,29.96,N/A,-737280,0.0,-999.0,97,0.00,,,0.00,Wunderground v.1.15,2013-06-17 04:00:00,
2013-06-17 00:05:00,65.1,64.2,29.96,N/A,-737280,0.0,-999.0,97,0.00,,,0.00,Wunderground v.1.15,2013-06-17 04:05:00,
2013-06-17 00:10:00,65.0,64.1,29.95,N/A,-737280,0.0,-999.0,97,0.00,,,0.00,Wunderground v.1.15,2013-06-17 04:10:00,
2013-06-17 00:15:00,64.8,63.9,29.95,N/A,-737280,0.0,-999.0,97,0.00,,,0.00,Wunderground v.1.15,2013-06-17 04:15:00,
2013-06-17 00:20:00,64.5,63.6,29.95,N/A,-737280,0.0,-999.0,97,0.00,,,0.00,Wunderground v.1.15,2013-06-17 04:20:00,
2013-06-17 00:25:00,64.4,63.5,29.95,N/A,-737280,0.0,-999.0,97,0.00,,,0.00,Wunderground v.1.15,2013-06-17 04:25:00,
2013-06-17 00:30:00,64.3,63.4,29.95,N/A,-737280,0.0,-999.0,97,0.00,,,0.00,Wunderground v.1.15,2013-06-17 04:30:00,
2013-06-17 00:35:00,64.1,63.2,29.95,N/A,-737280,0.0,-999.0,97,0.00,,,0.00,Wunderground v.1.15,2013-06-17 04:35:00,
2013-06-17 00:40:00,63.9,63.0,29.95,N/A,-737280,0.0,-999.0,97,0.00,,,0.00,Wunderground v.1.15,2013-06-17 04:40:00,
2013-06-17 00:45:00,63.8,62.9,29.95,N/A,-737280,0.0,-999.0,97,0.00,,,0.00,Wunderground v.1.15,2013-06-17 04:45:00,
2013-06-17 00:50:00,63.7,62.8,29.95,N/A,-737280,0.0,-999.0,97,0.00,,,0.00,Wunderground v.1.15,2013-06-17 04:50:00,
2013-06-17 00:55:00,63.6,63.0,29.95,N/A,-737280,0.0,-999.0,98,0.00,,,0.00,Wunderground v.1.15,2013-06-17 04:55:00,
2013-06-17 01:00:00,63.5,62.9,29.95,NNE,22,0.0,0.0,98,0.00,,,0.00,Wunderground v.1.15,2013-06-17 05:00:00,
2013-06-17 01:05:00,63.4,62.8,29.95,N/A,-737280,0.0,-999.0,98,0.00,,,0.00,Wunderground v.1.15,2013-06-17 05:05:00,
2013-06-17 01:10:00,63.2,62.6,29.95,NNE,22,0.0,0.0,98,0.00,,,0.00,Wunderground v.1.15,2013-06-17 05:10:00,
2013-06-17 01:15:00,63.3,62.7,29.96,NNE,22,0.0,0.0,98,0.00,,,0.00,Wunderground v.1.15,2013-06-17 05:15:00,
2013-06-17 01:20:00,63.2,62.6,29.96,NNE,22,0.0,0.0,98,0.00,,,0.00,Wunderground v.1.15,2013-06-17 05:20:00,
2013-06-17 01:25:00,63.1,62.5,29.96,N/A,-737280,0.0,-999.0,98,0.00,,,0.00,Wunderground v.1.15,2013-06-17 05:25:00,
2013-06-17 01:30:00,63.0,62.4,29.96,NNE,22,0.0,0.0,98,0.00,,,0.00,Wunderground v.1.15,2013-06-17 05:30:00,
2013-06-17 01:35:00,62.8,62.2,29.96,NNE,22,0.0,0.0,98,0.00,,,0.00,Wunderground v.1.15,2013-06-17 05:35:00,
2013-06-17 01:40:00,62.7,62.1,29.95,NNE,22,0.0,0.0,98,0.00,,,0.00,Wunderground v.1.15,2013-06-17 05:40:00,
2013-06-17 01:45:00,62.8,62.2,29.95,NNE,22,0.0,0.0,98,0.00,,,0.00,Wunderground v.1.15,2013-06-17 05:45:00,
2013-06-17 01:50:00,62.8,62.2,29.95,N/A,-737280,0.0,-999.0,98,0.00,,,0.00,Wunderground v.1.15,2013-06-17 05:50:00,
2013-06-17 01:55:00,62.6,62.0,29.95,NNE,22,0.0,0.0,98,0.00,,,0.00,Wunderground v.1.15,2013-06-17 05:55:00,
2013-06-17 02:00:00,62.6,62.0,29.96,NNE,22,0.0,0.0,98,0.00,,,0.00,Wunderground v.1.15,2013-06-17 06:00:00,
2013-06-17 02:05:00,62.5,61.9,29.96,N/A,-737280,0.0,-999.0,98,0.00,,,0.00,Wunderground v.1.15,2013-06-17 06:05:00,
2013-06-17 02:10:00,62.6,62.0,29.96,NNE,22,0.0,0.0,98,0.00,,,0.00,Wunderground v.1.15,2013-06-17 06:10:00,
2013-06-17 02:15:00,62.7,62.1,29.96,NNE,22,0.0,0.0,98,0.00,,,0.00,Wunderground v.1.15,2013-06-17 06:15:00,
2013-06-17 02:20:00,62.9,62.3,29.96,NNE,22,0.0,0.0,98,0.00,,,0.00,Wunderground v.1.15,2013-06-17 06:20:00,
2013-06-17 02:25:00,63.0,62.4,29.96,N/A,-737280,0.0,-999.0,98,0.00,,,0.00,Wunderground v.1.15,2013-06-17 06:25:00,
2013-06-17 02:30:00,63.4,62.8,29.96,NNE,22,0.0,0.0,98,0.00,,,0.00,Wunderground v.1.15,2013-06-17 06:30:00,
2013-06-17 02:35:00,63.6,63.0,29.96,NNE,22,0.0,0.0,98,0.00,,,0.00,Wunderground v.1.15,2013-06-17 06:35:00,
2013-06-17 02:40:00,64.1,63.8,29.96,NNE,22,0.0,0.0,99,0.00,,,0.00,Wunderground v.1.15,2013-06-17 06:40:00,
2013-06-17 02:45:00,64.5,64.2,29.96,SSE,159,0.0,0.0,99,0.00,,,0.00,Wunderground v.1.15,2013-06-17 06:45:00,
2013-06-17 02:50:00,65.3,65.0,29.96,SSE,159,1.0,2.0,99,0.00,,,0.00,Wunderground v.1.15,2013-06-17 06:50:00,
2013-06-17 02:55:00,65.5,65.2,29.96,WSW,248,1.0,2.0,99,0.00,,,0.00,Wunderground v.1.15,2013-06-17 06:55:00,
2013-06-17 03:00:00,65.5,65.2,29.96,WSW,246,0.0,0.0,99,0.00,,,0.00,Wunderground v.1.15,2013-06-17 07:00:00,
2013-06-17 03:05:00,65.5,65.2,29.96,N/A,-737280,0.0,-999.0,99,0.00,,,0.00,Wunderground v.1.15,2013-06-17 07:05:00,
2013-06-17 03:10:00,65.6,65.3,29.95,South,190,0.0,1.0,99,0.00,,,0.00,Wunderground v.1.15,2013-06-17 07:10:00,
2013-06-17 03:15:00,65.3,65.0,29.95,SSW,197,1.0,1.0,99,0.00,,,0.00,Wunderground v.1.15,2013-06-17 07:15:00,
2013-06-17 03:20:00,65.0,64.7,29.96,SSW,197,0.0,0.0,99,0.00,,,0.00,Wunderground v.1.15,2013-06-17 07:20:00,
2013-06-17 03:25:00,64.7,64.1,29.96,SSW,197,0.0,0.0,98,0.00,,,0.00,Wunderground v.1.15,2013-06-17 07:25:00,
2013-06-17 03:30:00,64.4,63.8,29.96,SSW,197,0.0,0.0,98,0.00,,,0.00,Wunderground v.1.15,2013-06-17 07:30:00,
2013-06-17 03:35:00,64.2,63.6,29.96,N/A,-737280,0.0,-999.0,98,0.00,,,0.00,Wunderground v.1.15,2013-06-17 07:35:00,
2013-06-17 03:40:00,63.9,63.3,29.96,N/A,-737280,0.0,-999.0,98,0.00,,,0.00,Wunderground v.1.15,2013-06-17 07:40:00,
2013-06-17 03:45:00,63.5,62.9,29.95,N/A,-737280,0.0,-999.0,98,0.00,,,0.00,Wunderground v.1.15,2013-06-17 07:45:00,
2013-06-17 03:50:00,63.2,62.6,29.96,N/A,-737280,0.0,-999.0,98,0.00,,,0.00,Wunderground v.1.15,2013-06-17 07:50:00,
2013-06-17 03:55:00,62.9,62.3,29.96,N/A,-737280,0.0,-999.0,98,0.00,,,0.00,Wunderground v.1.15,2013-06-17 07:55:00,
2013-06-17 04:00:00,62.7,62.1,29.96,N/A,-737280,0.0,-999.0,98,0.00,,,0.00,Wunderground v.1.15,2013-06-17 08:00:00,
2013-06-17 04:05:00,62.4,61.8,29.95,N/A,-737280,0.0,-999.0,98,0.00,,,0.00,Wunderground v.1.15,2013-06-17 08:05:00,
2013-06-17 04:10:00,62.3,61.7,29.95,N/A,-737280,0.0,-999.0,98,0.00,,,0.00,Wunderground v.1.15,2013-06-17 08:10:00,
2013-06-17 04:15:00,62.3,61.7,29.95,N/A,-737280,0.0,-999.0,98,0.00,,,0.00,Wunderground v.1.15,2013-06-17 08:15:00,
2013-06-17 04:20:00,62.3,61.7,29.95,N/A,-737280,0.0,-999.0,98,0.00,,,0.00,Wunderground v.1.15,2013-06-17 08:20:00,
2013-06-17 04:25:00,62.0,61.4,29.95,N/A,-737280,0.0,-999.0,98,0.00,,,0.00,Wunderground v.1.15,2013-06-17 08:25:00,
2013-06-17 04:30:00,62.0,61.4,29.95,N/A,-737280,0.0,-999.0,98,0.00,,,0.00,Wunderground v.1.15,2013-06-17 08:30:00,
2013-06-17 04:35:00,61.7,61.1,29.95,N/A,-737280,0.0,-999.0,98,0.00,,,0.00,Wunderground v.1.15,2013-06-17 08:35:00,
2013-06-17 04:40:00,61.6,61.0,29.96,N/A,-737280,0.0,-999.0,98,0.00,,,0.00,Wunderground v.1.15,2013-06-17 08:40:00,
2013-06-17 04:45:00,61.5,60.9,29.95,N/A,-737280,0.0,-999.0,98,0.00,,,0.00,Wunderground v.1.15,2013-06-17 08:45:00,
2013-06-17 04:50:00,61.4,60.8,29.96,N/A,-737280,0.0,-999.0,98,0.00,,,0.00,Wunderground v.1.15,2013-06-17 08:50:00,
2013-06-17 04:55:00,61.3,60.7,29.96,N/A,-737280,0.0,-999.0,98,0.00,,,0.00,Wunderground v.1.15,2013-06-17 08:55:00,
2013-06-17 05:00:00,61.2,60.6,29.96,N/A,-737280,0.0,-999.0,98,0.00,,,0.00,Wunderground v.1.15,2013-06-17 09:00:00,
2013-06-17 05:05:00,61.1,60.5,29.96,N/A,-737280,0.0,-999.0,98,0.00,,,0.00,Wunderground v.1.15,2013-06-17 09:05:00,
2013-06-17 05:10:00,61.1,60.5,29.96,N/A,-737280,0.0,-999.0,98,0.00,,,0.00,Wunderground v.1.15,2013-06-17 09:10:00,
2013-06-17 05:15:00,61.1,60.5,29.96,N/A,-737280,0.0,-999.0,98,0.00,,,0.00,Wunderground v.1.15,2013-06-17 09:15:00,
2013-06-17 05:20:00,61.1,60.8,29.96,N/A,-737280,0.0,-999.0,99,0.00,,,0.00,Wunderground v.1.15,2013-06-17 09:20:00,
2013-06-17 05:25:00,61.1,60.5,29.96,N/A,-737280,0.0,-999.0,98,0.00,,,0.00,Wunderground v.1.15,2013-06-17 09:25:00,
2013-06-17 05:30:00,60.9,60.3,29.96,N/A,-737280,0.0,-999.0,98,0.00,,,0.00,Wunderground v.1.15,2013-06-17 09:30:00,
2013-06-17 05:35:00,60.6,60.0,29.96,N/A,-737280,0.0,-999.0,98,0.00,,,0.00,Wunderground v.1.15,2013-06-17 09:35:00,
2013-06-17 05:40:00,60.2,59.6,29.96,SSW,197,0.0,1.0,98,0.00,,,0.00,Wunderground v.1.15,2013-06-17 09:40:00,
2013-06-17 05:45:00,60.1,59.5,29.96,SSW,197,0.0,1.0,98,0.00,,,0.00,Wunderground v.1.15,2013-06-17 09:45:00,
2013-06-17 05:50:00,60.0,59.4,29.95,SSW,197,0.0,1.0,98,0.00,,,0.00,Wunderground v.1.15,2013-06-17 09:50:00,
2013-06-17 05:55:00,60.1,59.5,29.96,SSW,197,0.0,1.0,98,0.00,,,0.00,Wunderground v.1.15,2013-06-17 09:55:00,
2013-06-17 06:00:00,60.0,59.4,29.96,SSW,197,0.0,0.0,98,0.00,,,0.00,Wunderground v.1.15,2013-06-17 10:00:00,
2013-06-17 06:05:00,60.0,59.7,29.96,N/A,-737280,0.0,-999.0,99,0.00,,,0.00,Wunderground v.1.15,2013-06-17 10:05:00,
2013-06-17 06:10:00,60.3,60.0,29.97,SSW,197,0.0,0.0,99,0.00,,,0.00,Wunderground v.1.15,2013-06-17 10:10:00,
2013-06-17 06:15:00,60.3,60.0,29.97,N/A,-737280,0.0,-999.0,99,0.00,,,0.00,Wunderground v.1.15,2013-06-17 10:15:00,
2013-06-17 06:20:00,60.4,60.1,29.97,SSW,197,0.0,0.0,99,0.00,,,0.00,Wunderground v.1.15,2013-06-17 10:20:00,
2013-06-17 06:25:00,60.5,60.2,29.97,SSW,197,0.0,0.0,99,0.00,,,0.00,Wunderground v.1.15,2013-06-17 10:25:00,
2013-06-17 06:30:00,60.7,60.4,29.98,SSW,197,0.0,0.0,99,0.00,,,0.00,Wunderground v.1.15,2013-06-17 10:30:00,
2013-06-17 06:35:00,60.8,60.5,29.97,SSW,197,0.0,0.0,99,0.00,,,0.00,Wunderground v.1.15,2013-06-17 10:35:00,
2013-06-17 06:40:00,60.8,60.5,29.97,SSW,197,0.0,0.0,99,0.00,,,0.00,Wunderground v.1.15,2013-06-17 10:40:00,
2013-06-17 06:45:00,60.9,60.6,29.98,SSW,197,0.0,0.0,99,0.00,,,0.00,Wunderground v.1.15,2013-06-17 10:45:00,
2013-06-17 06:50:00,61.1,60.8,29.98,SSW,197,0.0,0.0,99,0.00,,,0.00,Wunderground v.1.15,2013-06-17 10:50:00,
2013-06-17 06:55:00,61.3,61.0,29.98,SSW,197,0.0,0.0,99,0.00,,,0.00,Wunderground v.1.15,2013-06-17 10:55:00,
2013-06-17 07:00:00,61.5,61.2,29.98,SSW,197,0.0,0.0,99,0.00,,,0.00,Wunderground v.1.15,2013-06-17 11:00:00,
2013-06-17 07:05:00,61.6,61.3,29.98,N/A,-737280,0.0,-999.0,99,0.00,,,0.00,Wunderground v.1.15,2013-06-17 11:05:00,
2013-06-17 07:10:00,62.0,61.7,29.98,SSW,197,0.0,0.0,99,0.00,,,0.00,Wunderground v.1.15,2013-06-17 11:10:00,
2013-06-17 07:15:00,62.7,62.4,29.99,SSW,197,0.0,0.0,99,0.00,,,0.00,Wunderground v.1.15,2013-06-17 11:15:00,
2013-06-17 07:20:00,63.6,63.3,29.99,SSW,197,0.0,0.0,99,0.00,,,0.00,Wunderground v.1.15,2013-06-17 11:20:00,
2013-06-17 07:25:00,64.5,64.2,29.99,SSW,197,0.0,0.0,99,0.00,,,0.00,Wunderground v.1.15,2013-06-17 11:25:00,
2013-06-17 07:30:00,65.1,64.8,29.99,SW,236,0.0,0.0,99,0.00,,,0.00,Wunderground v.1.15,2013-06-17 11:30:00,
2013-06-17 07:35:00,65.2,64.9,29.99,SSE,158,0.0,-999.0,99,0.00,,,0.00,Wunderground v.1.15,2013-06-17 11:35:00,
2013-06-17 07:40:00,65.5,65.2,29.99,WSW,252,1.0,1.0,99,0.00,,,0.00,Wunderground v.1.15,2013-06-17 11:40:00,
2013-06-17 07:45:00,65.6,65.3,29.99,WSW,255,1.0,1.0,99,0.00,,,0.00,Wunderground v.1.15,2013-06-17 11:45:00,
2013-06-17 07:50:00,65.7,65.4,29.98,WSW,239,1.0,2.0,99,0.00,,,0.00,Wunderground v.1.15,2013-06-17 11:50:00,
2013-06-17 07:55:00,65.8,65.5,29.98,West,268,1.0,2.0,99,0.00,,,0.00,Wunderground v.1.15,2013-06-17 11:55:00,
2013-06-17 08:00:00,65.7,65.4,29.98,West,267,1.0,1.0,99,0.00,,,0.00,Wunderground v.1.15,2013-06-17 12:00:00,
2013-06-17 08:05:00,65.8,65.5,29.98,SW,225,1.0,-999.0,99,0.00,,,0.00,Wunderground v.1.15,2013-06-17 12:05:00,
2013-06-17 08:10:00,66.0,65.7,29.98,SW,225,1.0,1.0,99,0.00,,,0.00,Wunderground v.1.15,2013-06-17 12:10:00,
2013-06-17 08:15:00,66.1,65.8,29.99,SW,236,1.0,1.0,99,0.00,,,0.00,Wunderground v.1.15,2013-06-17 12:15:00,
2013-06-17 08:20:00,66.3,66.0,29.99,WSW,252,1.0,1.0,99,0.00,,,0.00,Wunderground v.1.15,2013-06-17 12:20:00,
2013-06-17 08:25:00,66.4,66.1,29.99,South,184,1.0,2.0,99,0.00,,,0.00,Wunderground v.1.15,2013-06-17 12:25:00,
2013-06-17 08:30:00,66.6,66.3,29.99,South,186,1.0,1.0,99,0.00,,,0.00,Wunderground v.1.15,2013-06-17 12:30:00,
2013-06-17 08:35:00,66.9,66.6,29.98,SSE,162,2.0,2.0,99,0.00,,,0.00,Wunderground v.1.15,2013-06-17 12:35:00,
2013-06-17 08:40:00,67.7,67.4,29.98,SE,146,2.0,3.0,99,0.00,,,0.00,Wunderground v.1.15,2013-06-17 12:40:00,
2013-06-17 08:45:00,67.9,67.6,29.98,SSW,197,2.0,3.0,99,0.00,,,0.00,Wunderground v.1.15,2013-06-17 12:45:00,
2013-06-17 08:50:00,68.0,67.7,29.98,SSE,153,2.0,2.0,99,0.00,,,0.00,Wunderground v.1.15,2013-06-17 12:50:00,
2013-06-17 08:55:00,68.0,67.7,29.98,SSE,158,3.0,-999.0,99,0.00,,,0.00,Wunderground v.1.15,2013-06-17 12:55:00,
2013-06-17 09:00:00,68.1,67.5,29.98,SSW,193,3.0,3.0,98,0.00,,,0.00,Wunderground v.1.15,2013-06-17 13:00:00,
2013-06-17 09:05:00,68.2,67.6,29.98,South,180,2.0,-999.0,98,0.00,,,0.00,Wunderground v.1.15,2013-06-17 13:05:00,
2013-06-17 09:10:00,69.2,68.6,29.98,SSE,167,2.0,3.0,98,0.00,,,0.00,Wunderground v.1.15,2013-06-17 13:10:00,
2013-06-17 09:15:00,69.7,69.1,29.98,South,186,4.0,4.0,98,0.00,,,0.00,Wunderground v.1.15,2013-06-17 13:15:00,
2013-06-17 09:20:00,69.7,68.8,29.98,SSW,203,2.0,-999.0,97,0.00,,,0.00,Wunderground v.1.15,2013-06-17 13:20:00,
2013-06-17 09:25:00,70.0,68.8,29.98,SSW,208,2.0,2.0,96,0.00,,,0.00,Wunderground v.1.15,2013-06-17 13:25:00,
2013-06-17 09:30:00,70.9,70.0,29.98,SE,139,2.0,2.0,97,0.00,,,0.00,Wunderground v.1.15,2013-06-17 13:30:00,
2013-06-17 09:35:00,71.4,70.2,29.98,SSE,153,2.0,2.0,96,0.00,,,0.00,Wunderground v.1.15,2013-06-17 13:35:00,
2013-06-17 09:40:00,71.7,69.9,29.98,SSE,158,2.0,-999.0,94,0.00,,,0.00,Wunderground v.1.15,2013-06-17 13:40:00,
2013-06-17 09:45:00,71.9,69.4,29.99,SSW,211,2.0,2.0,92,0.00,,,0.00,Wunderground v.1.15,2013-06-17 13:45:00,
2013-06-17 09:50:00,72.4,70.3,29.98,SSE,158,1.0,2.0,93,0.00,,,0.00,Wunderground v.1.15,2013-06-17 13:50:00,
2013-06-17 09:55:00,72.8,70.3,29.98,SSE,158,2.0,-999.0,92,0.00,,,0.00,Wunderground v.1.15,2013-06-17 13:55:00,
2013-06-17 10:00:00,73.7,70.6,29.98,SE,124,2.0,2.0,90,0.00,,,0.00,Wunderground v.1.15,2013-06-17 14:00:00,
2013-06-17 10:05:00,73.9,70.5,29.98,ESE,113,1.0,-999.0,89,0.00,,,0.00,Wunderground v.1.15,2013-06-17 14:05:00,
2013-06-17 10:10:00,74.6,70.8,29.98,SSE,153,1.0,2.0,88,0.00,,,0.00,Wunderground v.1.15,2013-06-17 14:10:00,
2013-06-17 10:15:00,75.4,71.9,29.98,SE,144,1.0,2.0,89,0.00,,,0.00,Wunderground v.1.15,2013-06-17 14:15:00,
2013-06-17 10:20:00,76.6,72.4,29.98,NNW,340,0.0,0.0,87,0.00,,,0.00,Wunderground v.1.15,2013-06-17 14:20:00,
2013-06-17 10:25:00,76.6,70.7,29.98,West,281,0.0,0.0,82,0.00,,,0.00,Wunderground v.1.15,2013-06-17 14:25:00,
2013-06-17 10:30:00,76.7,71.5,29.98,N/A,-737280,0.0,-999.0,84,0.00,,,0.00,Wunderground v.1.15,2013-06-17 14:30:00,
2013-06-17 10:35:00,77.0,70.4,29.98,West,273,1.0,1.0,80,0.00,,,0.00,Wunderground v.1.15,2013-06-17 14:35:00,
2013-06-17 10:40:00,76.8,71.2,29.98,West,267,1.0,1.0,83,0.00,,,0.00,Wunderground v.1.15,2013-06-17 14:40:00,
2013-06-17 10:45:00,77.2,70.9,29.98,SE,146,1.0,1.0,81,0.00,,,0.00,Wunderground v.1.15,2013-06-17 14:45:00,
2013-06-17 10:50:00,77.5,70.1,29.98,WSW,241,1.0,2.0,78,0.00,,,0.00,Wunderground v.1.15,2013-06-17 14:50:00,
2013-06-17 10:55:00,77.7,70.3,29.98,South,184,2.0,2.0,78,0.00,,,0.00,Wunderground v.1.15,2013-06-17 14:55:00,
2013-06-17 11:00:00,77.9,69.7,29.98,SE,143,2.0,2.0,76,0.00,,,0.00,Wunderground v.1.15,2013-06-17 15:00:00,
2013-06-17 11:05:00,78.0,69.4,29.98,SSE,158,3.0,-999.0,75,0.00,,,0.00,Wunderground v.1.15,2013-06-17 15:05:00,
2013-06-17 11:10:00,78.5,69.9,29.98,SSE,159,4.0,4.0,75,0.00,,,0.00,Wunderground v.1.15,2013-06-17 15:10:00,
2013-06-17 11:15:00,78.6,70.0,29.98,SE,136,3.0,4.0,75,0.00,,,0.00,Wunderground v.1.15,2013-06-17 15:15:00,
2013-06-17 11:20:00,78.7,68.5,29.98,SSE,166,2.0,3.0,71,0.00,,,0.00,Wunderground v.1.15,2013-06-17 15:20:00,
2013-06-17 11:25:00,79.3,70.3,29.98,ESE,108,3.0,4.0,74,0.00,,,0.00,Wunderground v.1.15,2013-06-17 15:25:00,
2013-06-17 11:30:00,79.4,68.8,29.98,SW,231,3.0,4.0,70,0.00,,,0.00,Wunderground v.1.15,2013-06-17 15:30:00,
2013-06-17 11:35:00,79.5,68.4,29.98,South,183,3.0,4.0,69,0.00,,,0.00,Wunderground v.1.15,2013-06-17 15:35:00,
2013-06-17 11:40:00,79.8,68.7,29.98,South,184,3.0,3.0,69,0.00,,,0.00,Wunderground v.1.15,2013-06-17 15:40:00,
2013-06-17 11:45:00,79.7,66.9,29.98,WSW,248,4.0,-999.0,65,0.00,,,0.00,Wunderground v.1.15,2013-06-17 15:45:00,
2013-06-17 11:50:00,79.6,65.0,29.98,South,187,4.0,4.0,61,0.00,,,0.00,Wunderground v.1.15,2013-06-17 15:50:00,
2013-06-17 11:55:00,79.7,66.4,29.98,SSW,203,4.0,-999.0,64,0.00,,,0.00,Wunderground v.1.15,2013-06-17 15:55:00,
2013-06-17 12:00:00,80.5,69.4,29.98,South,190,4.0,7.0,69,0.00,,,0.00,Wunderground v.1.15,2013-06-17 16:00:00,
2013-06-17 12:05:00,80.5,69.0,29.98,SSW,203,4.0,-999.0,68,0.00,,,0.00,Wunderground v.1.15,2013-06-17 16:05:00,
2013-06-17 12:10:00,80.1,67.7,29.98,South,187,5.0,5.0,66,0.00,,,0.00,Wunderground v.1.15,2013-06-17 16:10:00,
2013-06-17 12:15:00,79.8,67.9,29.98,South,172,5.0,5.0,67,0.00,,,0.00,Wunderground v.1.15,2013-06-17 16:15:00,
2013-06-17 12:20:00,79.9,65.7,29.98,SW,232,4.0,4.0,62,0.00,,,0.00,Wunderground v.1.15,2013-06-17 16:20:00,
2013-06-17 12:25:00,80.1,65.9,29.98,SSW,203,4.0,-999.0,62,0.00,,,0.00,Wunderground v.1.15,2013-06-17 16:25:00,
2013-06-17 12:30:00,80.4,64.8,29.98,SSW,203,6.0,-999.0,59,0.00,,,0.00,Wunderground v.1.15,2013-06-17 16:30:00,
2013-06-17 12:35:00,80.6,65.9,29.98,SSW,203,5.0,-999.0,61,0.00,,,0.00,Wunderground v.1.15,2013-06-17 16:35:00,
2013-06-17 12:40:00,80.7,64.5,29.98,SSW,203,5.0,-999.0,58,0.00,,,0.00,Wunderground v.1.15,2013-06-17 16:40:00,
2013-06-17 12:45:00,80.8,64.6,29.98,SSE,158,4.0,-999.0,58,0.00,,,0.00,Wunderground v.1.15,2013-06-17 16:45:00,
2013-06-17 12:59:00,81.2,65.0,29.98,SSW,203,2.0,-999.0,58,0.00,,,0.00,Wunderground v.1.15,2013-06-17 16:59:00,
2013-06-17 13:05:00,82.0,66.3,29.98,SW,231,3.0,6.0,59,0.00,,,0.00,Wunderground v.1.15,2013-06-17 17:05:00,
2013-06-17 13:10:00,82.0,64.8,29.98,SSW,208,4.0,4.0,56,0.00,,,0.00,Wunderground v.1.15,2013-06-17 17:10:00,
2013-06-17 13:15:00,82.4,64.1,29.98,SSE,159,3.0,4.0,54,0.00,,,0.00,Wunderground v.1.15,2013-06-17 17:15:00,
2013-06-17 13:20:00,82.5,63.6,29.97,ESE,113,3.0,3.0,53,0.00,,,0.00,Wunderground v.1.15,2013-06-17 17:20:00,
2013-06-17 13:25:00,82.8,66.5,29.97,SSW,211,3.0,8.0,58,0.00,,,0.00,Wunderground v.1.15,2013-06-17 17:25:00,
2013-06-17 13:35:00,82.4,65.1,29.97,SE,141,5.0,7.0,56,0.00,,,0.00,Wunderground v.1.15,2013-06-17 17:35:00,
2013-06-17 13:40:00,82.5,64.7,29.97,SSE,152,3.0,3.0,55,0.00,,,0.00,Wunderground v.1.15,2013-06-17 17:40:00,
2013-06-17 13:45:00,83.2,66.9,29.96,West,270,2.0,3.0,58,0.00,,,0.00,Wunderground v.1.15,2013-06-17 17:45:00,
2013-06-17 13:50:00,83.4,62.8,29.96,SSW,201,2.0,2.0,50,0.00,,,0.00,Wunderground v.1.15,2013-06-17 17:50:00,
2013-06-17 13:55:00,83.8,64.3,29.96,SSW,201,3.0,4.0,52,0.00,,,0.00,Wunderground v.1.15,2013-06-17 17:55:00,
2013-06-17 14:00:00,83.8,64.8,29.96,SSW,211,4.0,4.0,53,0.00,,,0.00,Wunderground v.1.15,2013-06-17 18:00:00,
2013-06-17 14:10:00,83.1,63.1,29.96,SSE,163,7.0,7.0,51,0.00,,,0.00,Wunderground v.1.15,2013-06-17 18:10:00,
2013-06-17 14:15:00,83.1,66.8,29.95,SW,221,6.0,7.0,58,0.00,,,0.00,Wunderground v.1.15,2013-06-17 18:15:00,
2013-06-17 14:20:00,83.1,65.3,29.95,SE,141,5.0,6.0,55,0.00,,,0.00,Wunderground v.1.15,2013-06-17 18:20:00,
2013-06-17 14:25:00,83.2,65.4,29.95,SSE,160,5.0,6.0,55,0.00,,,0.00,Wunderground v.1.15,2013-06-17 18:25:00,
2013-06-17 14:30:00,83.2,65.4,29.95,SSW,212,5.0,5.0,55,0.00,,,0.00,Wunderground v.1.15,2013-06-17 18:30:00,
2013-06-17 14:35:00,83.0,65.7,29.95,SW,214,4.0,5.0,56,0.00,,,0.00,Wunderground v.1.15,2013-06-17 18:35:00,
2013-06-17 14:40:00,83.1,66.3,29.95,South,181,4.0,4.0,57,0.00,,,0.00,Wunderground v.1.15,2013-06-17 18:40:00,
2013-06-17 14:50:00,83.0,65.7,29.95,SE,124,2.0,2.0,56,0.00,,,0.00,Wunderground v.1.15,2013-06-17 18:50:00,
2013-06-17 14:55:00,84.0,67.6,29.96,West,262,1.0,2.0,58,0.00,,,0.00,Wunderground v.1.15,2013-06-17 18:55:00,
2013-06-17 15:00:00,84.6,65.0,29.96,SW,221,1.0,4.0,52,0.00,,,0.00,Wunderground v.1.15,2013-06-17 19:00:00,
2013-06-17 15:45:00,84.6,67.2,29.94,SSW,201,5.0,6.0,56,0.00,,,0.00,Wunderground v.1.15,2013-06-17 19:45:00,
2013-06-17 15:55:00,83.8,64.3,29.94,SSW,196,4.0,4.0,52,0.00,,,0.00,Wunderground v.1.15,2013-06-17 19:55:00,
2013-06-17 16:00:00,83.9,63.8,29.93,SW,221,2.0,2.0,51,0.00,,,0.00,Wunderground v.1.15,2013-06-17 20:00:00,
2013-06-17 16:10:00,84.1,63.5,29.93,WSW,243,3.0,4.0,50,0.00,,,0.00,Wunderground v.1.15,2013-06-17 20:10:00,
2013-06-17 16:15:00,83.6,63.0,29.94,North,9,3.0,6.0,50,0.00,,,0.00,Wunderground v.1.15,2013-06-17 20:15:00,
2013-06-17 16:20:00,79.7,64.6,29.94,NE,42,6.0,6.0,60,0.00,,,0.00,Wunderground v.1.15,2013-06-17 20:20:00,
2013-06-17 16:30:00,75.6,63.4,29.94,NNE,29,7.0,7.0,66,0.00,,,0.00,Wunderground v.1.15,2013-06-17 20:30:00,
2013-06-17 16:35:00,74.5,62.8,29.94,NNE,29,8.0,8.0,67,0.00,,,0.00,Wunderground v.1.15,2013-06-17 20:35:00,
2013-06-17 16:45:00,73.1,62.3,29.94,NNE,16,5.0,7.0,69,0.00,,,0.00,Wunderground v.1.15,2013-06-17 20:45:00,
2013-06-17 16:50:00,72.5,62.6,29.96,NW,319,4.0,4.0,71,0.00,,,0.00,Wunderground v.1.15,2013-06-17 20:50:00,
2013-06-17 16:55:00,71.7,63.0,29.98,WSW,238,3.0,4.0,74,0.68,,,0.04,Wunderground v.1.15,2013-06-17 20:55:00,
2013-06-17 17:00:00,70.3,63.8,29.98,NNE,18,2.0,2.0,80,0.73,,,0.10,Wunderground v.1.15,2013-06-17 21:00:00,
2013-06-17 17:10:00,68.0,63.7,29.99,SE,129,1.0,1.0,86,0.44,,,0.18,Wunderground v.1.15,2013-06-17 21:10:00,
2013-06-17 17:15:00,67.3,63.6,29.98,ESE,117,1.0,1.0,88,0.21,,,0.20,Wunderground v.1.15,2013-06-17 21:15:00,
2013-06-17 17:20:00,66.9,63.9,29.98,NE,38,1.0,1.0,90,0.12,,,0.21,Wunderground v.1.15,2013-06-17 21:20:00,
2013-06-17 17:30:00,66.6,64.2,29.98,WSW,241,0.0,0.0,92,0.04,,,0.21,Wunderground v.1.15,2013-06-17 21:30:00,
2013-06-17 17:35:00,66.7,64.6,29.98,SSW,207,1.0,3.0,93,0.00,,,0.21,Wunderground v.1.15,2013-06-17 21:35:00,
2013-06-17 17:40:00,66.9,64.8,29.97,SSE,159,2.0,4.0,93,0.00,,,0.21,Wunderground v.1.15,2013-06-17 21:40:00,
2013-06-17 17:45:00,67.2,65.1,29.97,SE,143,3.0,4.0,93,0.00,,,0.21,Wunderground v.1.15,2013-06-17 21:45:00,
2013-06-17 17:50:00,67.2,64.8,29.97,WSW,243,2.0,2.0,92,0.00,,,0.21,Wunderground v.1.15,2013-06-17 21:50:00,
2013-06-17 17:55:00,67.2,64.5,29.96,SSW,196,2.0,2.0,91,0.00,,,0.21,Wunderground v.1.15,2013-06-17 21:55:00,
2013-06-17 18:00:00,67.5,65.1,29.96,ESE,109,1.0,1.0,92,0.00,,,0.21,Wunderground v.1.15,2013-06-17 22:00:00,
2013-06-17 18:10:00,68.2,65.8,29.95,North,2,1.0,1.0,92,0.00,,,0.21,Wunderground v.1.15,2013-06-17 22:10:00,
2013-06-17 18:15:00,68.4,66.0,29.95,ESE,109,1.0,1.0,92,0.00,,,0.21,Wunderground v.1.15,2013-06-17 22:15:00,
2013-06-17 18:20:00,68.6,66.2,29.95,SE,139,1.0,1.0,92,0.00,,,0.21,Wunderground v.1.15,2013-06-17 22:20:00,
2013-06-17 18:25:00,68.9,66.2,29.95,SE,140,0.0,1.0,91,0.00,,,0.21,Wunderground v.1.15,2013-06-17 22:25:00,
2013-06-17 18:30:00,69.3,66.2,29.95,SSE,157,0.0,2.0,90,0.00,,,0.21,Wunderground v.1.15,2013-06-17 22:30:00,
2013-06-17 18:35:00,69.4,66.0,29.94,South,178,1.0,2.0,89,0.00,,,0.21,Wunderground v.1.15,2013-06-17 22:35:00,
2013-06-17 18:40:00,69.4,66.0,29.94,South,177,0.0,0.0,89,0.00,,,0.21,Wunderground v.1.15,2013-06-17 22:40:00,
2013-06-17 18:45:00,69.5,65.8,29.94,SSE,166,1.0,1.0,88,0.00,,,0.21,Wunderground v.1.15,2013-06-17 22:45:00,
2013-06-17 18:55:00,69.5,66.1,29.93,SW,228,2.0,3.0,89,0.00,,,0.21,Wunderground v.1.15,2013-06-17 22:55:00,
2013-06-17 19:00:00,69.6,66.5,29.94,SW,228,1.0,1.0,90,0.00,,,0.21,Wunderground v.1.15,2013-06-17 23:00:00,
2013-06-17 19:10:00,69.7,66.6,29.93,SSE,153,0.0,2.0,90,0.00,,,0.21,Wunderground v.1.15,2013-06-17 23:10:00,
2013-06-17 19:15:00,69.6,66.5,29.92,South,177,1.0,2.0,90,0.00,,,0.21,Wunderground v.1.15,2013-06-17 23:15:00,
2013-06-17 19:20:00,69.5,66.4,29.93,SSW,196,2.0,2.0,90,0.00,,,0.21,Wunderground v.1.15,2013-06-17 23:20:00,
2013-06-17 19:25:00,69.3,66.2,29.93,WSW,245,2.0,2.0,90,0.00,,,0.21,Wunderground v.1.15,2013-06-17 23:25:00,
2013-06-17 19:35:00,69.3,66.2,29.93,SSW,207,2.0,2.0,90,0.00,,,0.21,Wunderground v.1.15,2013-06-17 23:35:00,
2013-06-17 19:40:00,69.4,66.7,29.93,WSW,248,1.0,1.0,91,0.00,,,0.21,Wunderground v.1.15,2013-06-17 23:40:00,
2013-06-17 19:45:00,69.4,66.3,29.93,SSW,211,1.0,2.0,90,0.00,,,0.21,Wunderground v.1.15,2013-06-17 23:45:00,
2013-06-17 19:50:00,69.3,66.2,29.94,SSW,204,2.0,3.0,90,0.00,,,0.21,Wunderground v.1.15,2013-06-17 23:50:00,
2013-06-17 19:55:00,69.0,65.9,29.94,SSW,197,1.0,3.0,90,0.00,,,0.21,Wunderground v.1.15,2013-06-17 23:55:00,
2013-06-17 20:00:00,68.8,66.1,29.94,SSE,148,1.0,1.0,91,0.00,,,0.21,Wunderground v.1.15,2013-06-18 00:00:00,
2013-06-17 20:10:00,68.4,65.7,29.94,SSE,148,0.0,0.0,91,0.00,,,0.21,Wunderground v.1.15,2013-06-18 00:10:00,
2013-06-17 20:15:00,68.3,65.9,29.94,SSE,148,0.0,0.0,92,0.00,,,0.21,Wunderground v.1.15,2013-06-18 00:15:00,
2013-06-17 20:20:00,68.0,65.6,29.94,SE,129,0.0,0.0,92,0.00,,,0.21,Wunderground v.1.15,2013-06-18 00:20:00,
2013-06-17 20:25:00,67.8,65.4,29.94,SSW,201,0.0,0.0,92,0.00,,,0.21,Wunderground v.1.15,2013-06-18 00:25:00,
2013-06-17 20:35:00,67.3,65.2,29.94,SSW,201,0.0,0.0,93,0.00,,,0.21,Wunderground v.1.15,2013-06-18 00:35:00,
2013-06-17 20:40:00,66.9,64.8,29.94,SSW,202,0.0,0.0,93,0.00,,,0.21,Wunderground v.1.15,2013-06-18 00:40:00,
2013-06-17 20:45:00,66.7,64.9,29.94,SSW,201,0.0,0.0,94,0.00,,,0.21,Wunderground v.1.15,2013-06-18 00:45:00,
2013-06-17 20:50:00,66.4,64.6,29.94,SSW,201,0.0,0.0,94,0.00,,,0.21,Wunderground v.1.15,2013-06-18 00:50:00,
2013-06-17 21:00:00,65.7,63.9,29.94,SSW,201,0.0,0.0,94,0.00,,,0.21,Wunderground v.1.15,2013-06-18 01:00:00,
2013-06-17 21:10:00,65.1,63.6,29.94,SSW,201,0.0,0.0,95,0.00,,,0.21,Wunderground v.1.15,2013-06-18 01:10:00,
2013-06-17 21:15:00,64.8,63.3,29.94,SSW,202,0.0,0.0,95,0.00,,,0.21,Wunderground v.1.15,2013-06-18 01:15:00,
2013-06-17 21:20:00,64.5,63.0,29.94,SSW,201,0.0,0.0,95,0.00,,,0.21,Wunderground v.1.15,2013-06-18 01:20:00,
2013-06-17 21:25:00,64.2,62.7,29.94,SSW,201,0.0,0.0,95,0.00,,,0.21,Wunderground v.1.15,2013-06-18 01:25:00,
2013-06-17 21:30:00,64.1,62.6,29.94,SSW,201,0.0,0.0,95,0.00,,,0.21,Wunderground v.1.15,2013-06-18 01:30:00,
2013-06-17 21:40:00,63.9,62.7,29.94,SSW,202,0.0,0.0,96,0.00,,,0.21,Wunderground v.1.15,2013-06-18 01:40:00,
2013-06-17 21:50:00,63.6,62.4,29.94,SSW,201,0.0,0.0,96,0.00,,,0.21,Wunderground v.1.15,2013-06-18 01:50:00,
2013-06-17 21:55:00,63.5,62.3,29.94,SSW,202,0.0,0.0,96,0.00,,,0.21,Wunderground v.1.15,2013-06-18 01:55:00,
2013-06-17 22:00:00,63.3,62.1,29.94,SSW,201,0.0,0.0,96,0.00,,,0.21,Wunderground v.1.15,2013-06-18 02:00:00,
2013-06-17 22:10:00,63.2,62.3,29.94,SSW,202,0.0,0.0,97,0.00,,,0.21,Wunderground v.1.15,2013-06-18 02:10:00,
2013-06-17 22:15:00,63.2,62.3,29.94,SSW,200,0.0,0.0,97,0.00,,,0.21,Wunderground v.1.15,2013-06-18 02:15:00,
2013-06-17 22:20:00,63.2,62.3,29.94,SSW,200,0.0,0.0,97,0.00,,,0.21,Wunderground v.1.15,2013-06-18 02:20:00,
2013-06-17 22:25:00,63.1,62.2,29.94,SSW,200,0.0,0.0,97,0.00,,,0.21,Wunderground v.1.15,2013-06-18 02:25:00,
2013-06-17 22:35:00,62.9,62.0,29.94,SSW,200,0.0,0.0,97,0.00,,,0.21,Wunderground v.1.15,2013-06-18 02:35:00,
2013-06-17 22:40:00,62.8,61.9,29.94,SSW,200,0.0,0.0,97,0.00,,,0.21,Wunderground v.1.15,2013-06-18 02:40:00,
2013-06-17 22:45:00,62.8,61.9,29.94,SSW,200,0.0,0.0,97,0.00,,,0.21,Wunderground v.1.15,2013-06-18 02:45:00,
2013-06-17 22:50:00,62.8,61.9,29.93,SSW,200,0.0,0.0,97,0.00,,,0.21,Wunderground v.1.15,2013-06-18 02:50:00,
2013-06-17 22:55:00,62.8,61.9,29.93,SSW,200,0.0,0.0,97,0.00,,,0.21,Wunderground v.1.15,2013-06-18 02:55:00,
2013-06-17 23:00:00,62.9,62.0,29.93,SSW,200,0.0,0.0,97,0.00,,,0.21,Wunderground v.1.15,2013-06-18 03:00:00,
2013-06-17 23:10:00,63.0,62.1,29.93,SSW,200,0.0,0.0,97,0.00,,,0.21,Wunderground v.1.15,2013-06-18 03:10:00,
2013-06-17 23:15:00,63.2,62.6,29.93,SSW,200,0.0,0.0,98,0.00,,,0.21,Wunderground v.1.15,2013-06-18 03:15:00,
2013-06-17 23:20:00,63.3,62.7,29.93,SSW,200,0.0,0.0,98,0.00,,,0.21,Wunderground v.1.15,2013-06-18 03:20:00,
2013-06-17 23:25:00,63.3,62.7,29.93,SSW,200,0.0,0.0,98,0.00,,,0.21,Wunderground v.1.15,2013-06-18 03:25:00,
2013-06-17 23:30:00,63.2,62.3,29.93,SSW,200,0.0,0.0,97,0.00,,,0.21,Wunderground v.1.15,2013-06-18 03:30:00,
2013-06-17 23:35:00,63.3,62.7,29.93,SSW,200,0.0,0.0,98,0.00,,,0.21,Wunderground v.1.15,2013-06-18 03:35:00,
2013-06-17 23:40:00,63.2,62.6,29.93,SSW,200,0.0,0.0,98,0.00,,,0.21,Wunderground v.1.15,2013-06-18 03:40:00,
2013-06-17 23:50:00,63.0,62.1,29.93,SSW,200,0.0,0.0,97,0.00,,,0.21,Wunderground v.1.15,2013-06-18 03:50:00,
2013-06-17 23:55:00,62.9,62.0,29.93,SSW,200,0.0,0.0,97,0.00,,,0.21,Wunderground v.1.15,2013-06-18 03:55:00,